When you browse on this site, cookies collect data to enhance your experience and personalize the content and advertising you see.
Visit our Privacy Policy to learn more. By continuing to use the site, you agree to this use of cookies and data.
  • In Austria
  • List of Countries
  • For 7 days
  • Water Temperature
  • Weather Map
  • News
  • Weather Widgets
  • user-avatar
    Login

    Hourly Weather Gedzhon

    Today, 2 April, Thursday

    Time Temperature Precipitation Wind Pressure Humidity
    00:00 +4°C° 0 mm 0 mps 749 mmHg 69%
    01:00 +4°C° 0 mm 0 mps 749 mmHg 71%
    02:00 +3°C° 0 mm 0 mps 750 mmHg 74%
    03:00 +3°C° 0 mm 0 mps 750 mmHg 75%
    04:00 +3°C° 0 mm 0 mps 750 mmHg 76%
    05:00 +2°C° 0 mm 0 mps 750 mmHg 77%
    06:00 +5°C° 0 mm 0 mps 751 mmHg 69%
    07:00 +7°C° 0 mm 0 mps 751 mmHg 60%
    08:00 +10°C° 0 mm 1 mps 752 mmHg 51%
    09:00 +12°C° 0 mm 1 mps 752 mmHg 44%
    10:00 +13°C° 0 mm 1 mps 752 mmHg 37%
    11:00 +15°C° 0 mm 2 mps 751 mmHg 30%
    12:00 +15°C° 0 mm 2 mps 751 mmHg 29%
    13:00 +16°C° 0 mm 3 mps 751 mmHg 29%
    14:00 +16°C° 0 mm 3 mps 750 mmHg 31%
    15:00 +14°C° 0 mm 3 mps 750 mmHg 34%
    16:00 +13°C° 0 mm 3 mps 751 mmHg 37%
    17:00 +12°C° 0 mm 3 mps 751 mmHg 40%
    18:00 +10°C° 0 mm 2 mps 751 mmHg 44%
    19:00 +10°C° 0 mm 1 mps 751 mmHg 47%
    20:00 +8°C° 0 mm 1 mps 751 mmHg 51%
    21:00 +8°C° 0 mm 1 mps 751 mmHg 53%
    22:00 +6°C° 0 mm 0 mps 751 mmHg 55%
    23:00 +5°C° 0 mm 0 mps 751 mmHg 56%

    Tomorrow, 3 April, Friday

    Time Temperature Precipitation Wind Pressure Humidity
    00:00 +5°C° 0 mm 0 mps 751 mmHg 57%
    01:00 +6°C° 0 mm 1 mps 751 mmHg 57%
    02:00 +5°C° 0 mm 1 mps 751 mmHg 57%
    03:00 +4°C° 0 mm 0 mps 751 mmHg 58%
    04:00 +4°C° 0 mm 0 mps 751 mmHg 58%
    05:00 +3°C° 0 mm 0 mps 751 mmHg 59%
    06:00 +5°C° 0 mm 0 mps 751 mmHg 53%
    07:00 +7°C° 0 mm 0 mps 751 mmHg 48%
    08:00 +11°C° 0 mm 1 mps 752 mmHg 42%
    09:00 +12°C° 0 mm 1 mps 751 mmHg 39%
    10:00 +13°C° 0 mm 2 mps 751 mmHg 37%
    11:00 +14°C° 0 mm 3 mps 751 mmHg 34%
    12:00 +14°C° 0 mm 3 mps 750 mmHg 32%
    13:00 +16°C° 0 mm 3 mps 750 mmHg 29%
    14:00 +15°C° 0 mm 4 mps 749 mmHg 27%
    15:00 +14°C° 0 mm 4 mps 749 mmHg 30%
    16:00 +13°C° 0 mm 4 mps 749 mmHg 33%
    17:00 +12°C° 0 mm 4 mps 749 mmHg 36%
    18:00 +10°C° 0 mm 3 mps 749 mmHg 44%
    19:00 +8°C° 0 mm 3 mps 750 mmHg 52%
    20:00 +7°C° 0 mm 2 mps 750 mmHg 60%
    21:00 +6°C° 0 mm 2 mps 750 mmHg 63%
    22:00 +6°C° 0 mm 2 mps 750 mmHg 66%
    23:00 +5°C° 0 mm 3 mps 750 mmHg 69%

    Day after tomorrow, 4 April, Saturday

    Time Temperature Precipitation Wind Pressure Humidity
    00:00 +5°C° 0 mm 2 mps 749 mmHg 71%
    01:00 +5°C° 0 mm 2 mps 749 mmHg 73%
    02:00 +4°C° 0 mm 2 mps 748 mmHg 74%
    03:00 +4°C° 0 mm 2 mps 748 mmHg 76%
    04:00 +4°C° 0 mm 2 mps 749 mmHg 77%
    05:00 +4°C° 0 mm 2 mps 749 mmHg 79%
    06:00 +5°C° 0 mm 3 mps 749 mmHg 68%
    07:00 +6°C° 0 mm 4 mps 749 mmHg 57%
    08:00 +7°C° 0 mm 4 mps 749 mmHg 47%
    09:00 +8°C° 0 mm 5 mps 750 mmHg 38%
    10:00 +9°C° 0 mm 5 mps 750 mmHg 30%
    11:00 +9°C° 0 mm 6 mps 750 mmHg 22%
    12:00 +9°C° 0 mm 6 mps 749 mmHg 22%
    13:00 +9°C° 0 mm 7 mps 749 mmHg 23%
    14:00 +9°C° 0 mm 7 mps 749 mmHg 23%
    15:00 +8°C° 0 mm 7 mps 750 mmHg 25%
    16:00 +7°C° 0 mm 6 mps 750 mmHg 27%
    17:00 +5°C° 0 mm 6 mps 751 mmHg 29%
    18:00 +5°C° 0 mm 5 mps 751 mmHg 33%
    19:00 +4°C° 0 mm 4 mps 752 mmHg 38%
    20:00 +2°C° 0 mm 3 mps 752 mmHg 42%
    21:00 +2°C° 0 mm 3 mps 752 mmHg 44%
    22:00 +3°C° 0 mm 2 mps 752 mmHg 45%
    23:00 +2°C° 0 mm 2 mps 752 mmHg 47%

    5 April, Sunday

    Time Temperature Precipitation Wind Pressure Humidity
    00:00 +2°C° 0 mm 2 mps 752 mmHg 49%
    01:00 +1°C° 0 mm 2 mps 752 mmHg 50%
    02:00 +1°C° 0 mm 2 mps 752 mmHg 51%
    03:00 -1°C° 0 mm 2 mps 752 mmHg 53%
    04:00 +1°C° 0 mm 1 mps 752 mmHg 54%
    05:00 +1°C° 0 mm 1 mps 752 mmHg 55%
    06:00 +2°C° 0 mm 2 mps 752 mmHg 49%
    07:00 +3°C° 0 mm 3 mps 752 mmHg 42%
    08:00 +5°C° 0 mm 4 mps 752 mmHg 35%
    09:00 +6°C° 0 mm 4 mps 752 mmHg 32%
    10:00 +7°C° 0 mm 5 mps 751 mmHg 30%
    11:00 +9°C° 0 mm 5 mps 751 mmHg 27%
    12:00 +9°C° 0 mm 5 mps 751 mmHg 26%
    13:00 +10°C° 0 mm 5 mps 750 mmHg 26%
    14:00 +10°C° 0 mm 5 mps 750 mmHg 25%
    15:00 +10°C° 0 mm 5 mps 750 mmHg 27%
    16:00 +10°C° 0 mm 4 mps 750 mmHg 28%
    17:00 +8°C° 0 mm 4 mps 750 mmHg 30%
    18:00 +7°C° 0 mm 3 mps 750 mmHg 36%
    19:00 +5°C° 0 mm 3 mps 751 mmHg 42%
    20:00 +4°C° 0 mm 2 mps 751 mmHg 49%
    21:00 +4°C° 0 mm 2 mps 751 mmHg 52%
    22:00 +4°C° 0 mm 1 mps 751 mmHg 55%
    23:00 +3°C° 0 mm 1 mps 751 mmHg 59%

    6 April, Monday

    Time Temperature Precipitation Wind Pressure Humidity
    00:00 +3°C° 0 mm 1 mps 751 mmHg 59%
    01:00 +3°C° 0 mm 1 mps 751 mmHg 60%
    02:00 +3°C° 0 mm 1 mps 751 mmHg 60%
    03:00 +2°C° 0 mm 1 mps 751 mmHg 61%
    04:00 +2°C° 0 mm 1 mps 751 mmHg 62%
    05:00 +2°C° 0 mm 1 mps 751 mmHg 63%
    06:00 +4°C° 0 mm 1 mps 751 mmHg 57%
    07:00 +7°C° 0 mm 1 mps 751 mmHg 51%
    08:00 +9°C° 0 mm 1 mps 751 mmHg 45%
    09:00 +10°C° 0 mm 2 mps 751 mmHg 41%
    10:00 +13°C° 0 mm 2 mps 751 mmHg 36%
    11:00 +14°C° 0 mm 3 mps 750 mmHg 32%
    12:00 +16°C° 0 mm 3 mps 750 mmHg 31%
    13:00 +15°C° 0 mm 4 mps 749 mmHg 30%
    14:00 +17°C° 0 mm 4 mps 749 mmHg 29%
    15:00 +15°C° 0 mm 4 mps 748 mmHg 34%
    16:00 +14°C° 0 mm 4 mps 748 mmHg 39%
    17:00 +12°C° 0 mm 4 mps 748 mmHg 45%
    18:00 +10°C° 0 mm 3 mps 748 mmHg 54%
    19:00 +9°C° 0 mm 2 mps 748 mmHg 64%
    20:00 +7°C° 0 mm 2 mps 749 mmHg 73%
    21:00 +7°C° 0 mm 1 mps 749 mmHg 76%
    22:00 +7°C° 0 mm 1 mps 749 mmHg 78%
    23:00 +6°C° 0 mm 1 mps 749 mmHg 81%

    7 April, Tuesday

    Time Temperature Precipitation Wind Pressure Humidity
    00:00 +6°C° 0 mm 1 mps 748 mmHg 81%
    01:00 +6°C° 0 mm 1 mps 748 mmHg 82%
    02:00 +6°C° 0 mm 1 mps 748 mmHg 82%
    03:00 +6°C° 0 mm 1 mps 747 mmHg 82%
    04:00 +6°C° 0 mm 1 mps 747 mmHg 82%
    05:00 +5°C° 0 mm 1 mps 747 mmHg 81%
    06:00 +6°C° 0 mm 2 mps 747 mmHg 72%
    07:00 +8°C° 0 mm 3 mps 747 mmHg 62%
    08:00 +10°C° 0 mm 3 mps 747 mmHg 53%
    09:00 +12°C° 0 mm 4 mps 747 mmHg 48%
    10:00 +14°C° 0 mm 5 mps 746 mmHg 44%
    11:00 +15°C° 0 mm 6 mps 746 mmHg 39%
    12:00 +16°C° 0 mm 6 mps 746 mmHg 39%
    13:00 +16°C° 0 mm 6 mps 746 mmHg 39%
    14:00 +16°C° 0 mm 6 mps 745 mmHg 40%
    15:00 +15°C° 0 mm 5 mps 746 mmHg 39%
    16:00 +13°C° 0 mm 5 mps 746 mmHg 38%
    17:00 +12°C° 0 mm 4 mps 746 mmHg 37%
    18:00 +10°C° 0 mm 4 mps 746 mmHg 39%
    19:00 +8°C° 0 mm 3 mps 747 mmHg 42%
    20:00 +7°C° 0 mm 2 mps 747 mmHg 44%
    21:00 +6°C° 0 mm 2 mps 747 mmHg 48%
    22:00 +5°C° 0 mm 2 mps 748 mmHg 52%
    23:00 +5°C° 0 mm 2 mps 748 mmHg 55%
    Show more